When you browse on this site, cookies collect data to enhance your experience and personalize the content and advertising you see.
Visit our Privacy Policy to learn more. By continuing to use the site, you agree to this use of cookies and data.
  • In Hungary
  • List of Countries
  • For 7 days
  • Water Temperature
  • Weather Map
  • News
  • Weather Widgets
  • user-avatar
    Login

    Hourly Weather Goab

    Today, 24 October, Thursday

    Time Temperature Precipitation Wind Pressure Humidity
    00:00 +3°C° 0 mm 1 mps 574 mmHg 85%
    01:00 +3°C° 0 mm 1 mps 573 mmHg 86%
    02:00 +3°C° 0 mm 1 mps 573 mmHg 87%
    03:00 +2°C° 0 mm 1 mps 573 mmHg 88%
    04:00 +2°C° 0 mm 1 mps 573 mmHg 87%
    05:00 +2°C° 0 mm 1 mps 573 mmHg 86%
    06:00 +2°C° 0 mm 1 mps 573 mmHg 84%
    07:00 +3°C° 0 mm 1 mps 574 mmHg 76%
    08:00 +5°C° 0 mm 1 mps 575 mmHg 67%
    09:00 +6°C° 0 mm 1 mps 576 mmHg 58%
    10:00 +7°C° 0 mm 1 mps 576 mmHg 57%
    11:00 +8°C° 0 mm 1 mps 576 mmHg 56%
    12:00 +7°C° 0 mm 2 mps 576 mmHg 55%
    13:00 +7°C° 0.1 mm 2 mps 576 mmHg 58%
    14:00 +7°C° 0.1 mm 2 mps 575 mmHg 60%
    15:00 +6°C° 0.1 mm 2 mps 575 mmHg 62%
    16:00 +6°C° 0 mm 1 mps 575 mmHg 70%
    17:00 +5°C° 0 mm 1 mps 574 mmHg 77%
    18:00 +2°C° 0 mm 0 mps 573 mmHg 85%
    19:00 +2°C° 0 mm 0 mps 573 mmHg 85%
    20:00 +3°C° 0 mm 1 mps 573 mmHg 85%
    21:00 +2°C° 0 mm 1 mps 573 mmHg 85%
    22:00 +2°C° 0 mm 1 mps 573 mmHg 85%
    23:00 +2°C° 0 mm 1 mps 573 mmHg 85%

    Tomorrow, 25 October, Friday

    Time Temperature Precipitation Wind Pressure Humidity
    00:00 +2°C° 0 mm 1 mps 573 mmHg 86%
    01:00 +1°C° 0 mm 2 mps 573 mmHg 84%
    02:00 +1°C° 0 mm 2 mps 572 mmHg 83%
    03:00 +1°C° 0 mm 2 mps 572 mmHg 82%
    04:00 +2°C° 0 mm 1 mps 572 mmHg 78%
    05:00 +2°C° 0 mm 1 mps 572 mmHg 74%
    06:00 +2°C° 0 mm 1 mps 572 mmHg 71%
    07:00 +4°C° 0 mm 1 mps 573 mmHg 62%
    08:00 +6°C° 0 mm 1 mps 574 mmHg 53%
    09:00 +7°C° 0 mm 1 mps 575 mmHg 44%
    10:00 +8°C° 0 mm 1 mps 575 mmHg 45%
    11:00 +9°C° 0 mm 1 mps 575 mmHg 46%
    12:00 +8°C° 0 mm 2 mps 575 mmHg 46%
    13:00 +8°C° 0 mm 2 mps 575 mmHg 50%
    14:00 +8°C° 0 mm 2 mps 575 mmHg 53%
    15:00 +9°C° 0 mm 1 mps 574 mmHg 57%
    16:00 +7°C° 0 mm 1 mps 573 mmHg 66%
    17:00 +5°C° 0 mm 1 mps 573 mmHg 75%
    18:00 +2°C° 0 mm 0 mps 572 mmHg 84%
    19:00 +2°C° 0 mm 0 mps 572 mmHg 84%
    20:00 +3°C° 0 mm 1 mps 572 mmHg 84%
    21:00 +3°C° 0 mm 1 mps 572 mmHg 84%
    22:00 +3°C° 0 mm 1 mps 572 mmHg 85%
    23:00 +3°C° 0 mm 1 mps 572 mmHg 85%

    Day after tomorrow, 26 October, Saturday

    Time Temperature Precipitation Wind Pressure Humidity
    00:00 +3°C° 0 mm 1 mps 572 mmHg 86%
    01:00 +3°C° 0 mm 1 mps 572 mmHg 86%
    02:00 +3°C° 0 mm 1 mps 572 mmHg 85%
    03:00 +2°C° 0 mm 1 mps 571 mmHg 85%
    04:00 +1°C° 0 mm 0 mps 571 mmHg 84%
    05:00 +1°C° 0 mm 0 mps 571 mmHg 83%
    06:00 +1°C° 0 mm 0 mps 571 mmHg 82%
    07:00 +3°C° 0 mm 0 mps 572 mmHg 74%
    08:00 +5°C° 0 mm 1 mps 573 mmHg 67%
    09:00 +7°C° 0 mm 1 mps 574 mmHg 59%
    10:00 +8°C° 0 mm 1 mps 574 mmHg 59%
    11:00 +7°C° 0 mm 2 mps 575 mmHg 59%
    12:00 +8°C° 0 mm 2 mps 575 mmHg 58%
    13:00 +7°C° 0.3 mm 2 mps 575 mmHg 65%
    14:00 +7°C° 0.3 mm 2 mps 574 mmHg 71%
    15:00 +7°C° 0.3 mm 1 mps 574 mmHg 78%
    16:00 +6°C° 0.4 mm 1 mps 573 mmHg 83%
    17:00 +5°C° 0.4 mm 1 mps 573 mmHg 88%
    18:00 +3°C° 0.4 mm 0 mps 573 mmHg 93%
    19:00 +3°C° 0.2 mm 0 mps 573 mmHg 92%
    20:00 +3°C° 0.2 mm 0 mps 573 mmHg 91%
    21:00 +2°C° 0.2 mm 0 mps 573 mmHg 90%
    22:00 +2°C° 0 mm 0 mps 573 mmHg 90%
    23:00 +2°C° 0 mm 0 mps 572 mmHg 89%

    , 27 October, Sunday

    Time Temperature Precipitation Wind Pressure Humidity
    00:00 +1°C° 0 mm 0 mps 572 mmHg 89%
    01:00 +1°C° 0 mm 0 mps 572 mmHg 88%
    02:00 +1°C° 0 mm 0 mps 572 mmHg 87%
    03:00 +1°C° 0 mm 0 mps 572 mmHg 86%
    04:00 +1°C° 0 mm 0 mps 572 mmHg 85%
    05:00 +1°C° 0 mm 1 mps 572 mmHg 83%
    06:00 +1°C° 0 mm 1 mps 572 mmHg 82%
    07:00 +3°C° 0 mm 1 mps 572 mmHg 76%
    08:00 +4°C° 0 mm 1 mps 573 mmHg 70%
    09:00 +6°C° 0 mm 1 mps 574 mmHg 65%
    10:00 +7°C° 0 mm 1 mps 575 mmHg 63%
    11:00 +6°C° 0 mm 2 mps 575 mmHg 61%
    12:00 +7°C° 0 mm 2 mps 575 mmHg 59%
    13:00 +7°C° 0.1 mm 2 mps 575 mmHg 63%
    14:00 +6°C° 0.1 mm 2 mps 574 mmHg 66%
    15:00 +6°C° 0.1 mm 2 mps 574 mmHg 69%
    16:00 +6°C° 0 mm 1 mps 574 mmHg 75%
    17:00 +4°C° 0 mm 1 mps 573 mmHg 80%
    18:00 +2°C° 0 mm 0 mps 572 mmHg 85%
    19:00 +2°C° 0 mm 0 mps 572 mmHg 85%
    20:00 +2°C° 0 mm 0 mps 572 mmHg 84%
    21:00 +2°C° 0 mm 1 mps 572 mmHg 83%
    22:00 +2°C° 0 mm 1 mps 572 mmHg 83%
    23:00 +2°C° 0 mm 1 mps 572 mmHg 84%

    27 October, Sunday

    Time Temperature Precipitation Wind Pressure Humidity
    00:00 +1°C° 0 mm 0 mps 572 mmHg 89%
    01:00 +1°C° 0 mm 0 mps 572 mmHg 88%
    02:00 +1°C° 0 mm 0 mps 572 mmHg 87%
    03:00 +1°C° 0 mm 0 mps 572 mmHg 86%
    04:00 +1°C° 0 mm 0 mps 572 mmHg 85%
    05:00 +1°C° 0 mm 1 mps 572 mmHg 83%
    06:00 +1°C° 0 mm 1 mps 572 mmHg 82%
    07:00 +3°C° 0 mm 1 mps 572 mmHg 76%
    08:00 +4°C° 0 mm 1 mps 573 mmHg 70%
    09:00 +6°C° 0 mm 1 mps 574 mmHg 65%
    10:00 +7°C° 0 mm 1 mps 575 mmHg 63%
    11:00 +6°C° 0 mm 2 mps 575 mmHg 61%
    12:00 +7°C° 0 mm 2 mps 575 mmHg 59%
    13:00 +7°C° 0.1 mm 2 mps 575 mmHg 63%
    14:00 +6°C° 0.1 mm 2 mps 574 mmHg 66%
    15:00 +6°C° 0.1 mm 2 mps 574 mmHg 69%
    16:00 +6°C° 0 mm 1 mps 574 mmHg 75%
    17:00 +4°C° 0 mm 1 mps 573 mmHg 80%
    18:00 +2°C° 0 mm 0 mps 572 mmHg 85%
    19:00 +2°C° 0 mm 0 mps 572 mmHg 85%
    20:00 +2°C° 0 mm 0 mps 572 mmHg 84%
    21:00 +2°C° 0 mm 1 mps 572 mmHg 83%
    22:00 +2°C° 0 mm 1 mps 572 mmHg 83%
    23:00 +2°C° 0 mm 1 mps 572 mmHg 84%

    28 October, Monday

    Time Temperature Precipitation Wind Pressure Humidity
    00:00 +2°C° 0 mm 1 mps 572 mmHg 84%
    01:00 +2°C° 0 mm 1 mps 572 mmHg 83%
    02:00 +2°C° 0 mm 1 mps 572 mmHg 83%
    03:00 +2°C° 0 mm 1 mps 572 mmHg 83%
    04:00 +2°C° 0 mm 1 mps 572 mmHg 80%
    05:00 +2°C° 0 mm 1 mps 572 mmHg 77%
    06:00 +1°C° 0 mm 2 mps 572 mmHg 74%
    07:00 +3°C° 0 mm 2 mps 573 mmHg 68%
    08:00 +5°C° 0 mm 2 mps 574 mmHg 62%
    09:00 +6°C° 0 mm 2 mps 575 mmHg 56%
    10:00 +7°C° 0 mm 2 mps 575 mmHg 54%
    11:00 +8°C° 0 mm 2 mps 575 mmHg 52%
    12:00 +9°C° 0 mm 2 mps 576 mmHg 51%
    13:00 +9°C° 0 mm 2 mps 575 mmHg 53%
    14:00 +10°C° 0 mm 1 mps 575 mmHg 55%
    15:00 +10°C° 0 mm 1 mps 575 mmHg 58%
    16:00 +8°C° 0 mm 1 mps 574 mmHg 66%
    17:00 +6°C° 0 mm 1 mps 573 mmHg 74%
    18:00 +3°C° 0 mm 2 mps 572 mmHg 81%
    19:00 +3°C° 0 mm 2 mps 571 mmHg 76%
    20:00 +3°C° 0 mm 2 mps 571 mmHg 71%
    21:00 +3°C° 0 mm 2 mps 571 mmHg 65%
    22:00 +3°C° 0 mm 2 mps 571 mmHg 61%
    23:00 +3°C° 0 mm 2 mps 571 mmHg 56%

    29 October, Tuesday

    Time Temperature Precipitation Wind Pressure Humidity
    00:00 +3°C° 0 mm 2 mps 570 mmHg 52%
    01:00 +2°C° 0 mm 2 mps 570 mmHg 49%
    02:00 +2°C° 0 mm 2 mps 570 mmHg 47%
    03:00 +2°C° 0 mm 2 mps 570 mmHg 44%
    04:00 +3°C° 0 mm 1 mps 570 mmHg 42%
    05:00 +3°C° 0 mm 1 mps 569 mmHg 41%
    06:00 +3°C° 0 mm 1 mps 569 mmHg 39%
    07:00 +5°C° 0 mm 1 mps 570 mmHg 35%
    08:00 +6°C° 0 mm 0 mps 571 mmHg 31%
    09:00 +8°C° 0 mm 0 mps 572 mmHg 27%
    10:00 +9°C° 0 mm 1 mps 572 mmHg 29%
    11:00 +10°C° 0 mm 1 mps 572 mmHg 30%
    12:00 +10°C° 0 mm 2 mps 573 mmHg 31%
    13:00 +10°C° 0 mm 1 mps 572 mmHg 35%
    14:00 +10°C° 0 mm 1 mps 572 mmHg 39%
    15:00 +10°C° 0 mm 1 mps 571 mmHg 43%
    16:00 +8°C° 0 mm 1 mps 570 mmHg 52%
    17:00 +6°C° 0 mm 1 mps 569 mmHg 61%
    18:00 +3°C° 0 mm 0 mps 569 mmHg 70%
    19:00 +4°C° 0 mm 1 mps 569 mmHg 68%
    20:00 +4°C° 0 mm 1 mps 569 mmHg 66%
    21:00 +4°C° 0 mm 1 mps 569 mmHg 65%
    22:00 +2°C° 0 mm 2 mps 569 mmHg 64%
    23:00 +2°C° 0 mm 2 mps 569 mmHg 63%
    Show more